Powrót do katalogu

SL-12 R/B(2)

AktywnyGEO
NORAD 21792·ROCKET BODY·🇷🇺 Russia

Wystrzelony Nov 22, 1991 z Baikonur Cosmodrome

Loading…

TLE

ŚwieżeSource: Space-Track

Epoka: Sep 13, 2026, 20:52 UTC

1 21792U 91079D   26256.86962918 -.00000055  00000-0  00000+0 0  9997
2 21792  13.9710 342.2932 0004775 148.3935 212.1359  0.98616901125309

Śledź SL-12 R/B(2) w czasie rzeczywistym z AllMySat

Download on the App Store